Location: Tel Aviv
(32.0670°N, 34.7670°E)
Time: 16:37:58
(UTC+03:00)

ISS - Pass Details

Date: 25 May 2025
Orbit: 415 x 417 km, 51.6° (Epoch: 15 June)

Event Time Altitude Azimuth Distance (km) Brightness Sun altitude
Rises 21:47:09 0° 321° (NW) 2,354 1.5 -22.9°
Reaches altitude 10° 21:49:20 10° 329° (NNW) 1,488 0.1 -23.3°
Enters shadow 21:51:39 33° 2° (N) 718 -2.3 -23.6°
